Wind_Speed
50 47 45 43 42 39 37 34 32 28 24 21 17 15 13 10 7 6 4 2 1 2 4 5 11 15 16 17 18 19 19 20 16 14 14 10 10 10 9 9 9 8 9 9 7
53 51 49 44 44 43 39 37 34 33 28 24 20 17 15 13 11 9 6 5 3 3 2 2 8 13 15 15 16 18 20 19 19 19 17 15 13 12 10 10 8 10 8 9 9
59 55 54 50 46 44 43 40 37 35 32 28 24 20 18 16 14 11 9 8 6 4 3 3 7 12 14 14 14 15 16 18 19 19 18 18 16 14 12 12 9 9 11 9 10
63 61 58 56 52 48 45 43 40 38 35 32 28 24 21 20 17 14 12 10 8 7 4 3 7 11 14 13 13 13 12 14 17 17 18 17 17 15 14 15 12 13 11 13 11
66 65 62 60 57 54 49 46 44 42 39 36 33 29 25 23 21 17 15 13 11 10 7 5 8 12 15 15 15 14 14 15 16 16 16 16 16 14 19 16 15 17 13 14 15
68 69 67 64 61 59 55 51 48 46 43 40 38 34 30 27 24 21 17 15 13 13 11 8 7 11 15 17 16 17 16 17 18 17 18 18 17 16 21 16 16 18 14 14 15
72 71 72 69 66 62 59 57 54 50 48 45 42 38 35 31 27 23 20 18 16 15 14 12 9 10 13 18 19 19 19 18 18 18 19 20 20 19 19 18 18 16 18 15 15
73 73 71 71 70 67 64 61 58 56 53 49 46 42 38 35 30 28 24 21 20 19 18 16 13 11 12 14 18 20 20 20 21 22 22 21 22 20 22 21 20 18 18 18 17
74 74 72 72 71 69 67 65 62 59 57 55 50 46 42 37 34 31 28 24 22 22 21 20 18 15 14 15 14 15 15 15 14 16 18 18 20 23 25 25 24 23 21 21 20
81 76 74 73 71 71 70 67 65 62 60 58 55 51 45 39 39 34 31 28 26 25 24 24 23 20 17 18 18 18 17 18 16 15 14 15 14 16 20 21 22 23 23 23 24
83 81 75 74 74 71 72 70 67 66 63 57 56 55 48 45 42 39 36 33 30 29 29 28 25 22 24 23 23 22 22 21 22 20 18 19 14 16 20 17 19 23 25 25 26
88 83 80 74 74 74 72 71 67 67 63 61 61 58 53 51 46 44 41 37 34 33 33 30 26 30 28 26 27 26 25 24 24 24 21 22 17 17 20 20 22 22 24 28 28
87 82 81 80 75 73 72 67 67 65 65 64 63 62 56 55 52 49 45 41 37 37 35 35 32 33 31 31 31 31 29 28 28 27 26 24 22 20 23 25 26 25 24 23 23
87 84 81 79 78 73 72 69 66 65 66 69 66 64 61 58 59 53 51 44 42 39 40 39 36 35 34 33 34 33 34 33 32 32 31 28 27 23 24 25 25 25 25 24 24
86 89 85 79 76 73 66 66 65 64 68 68 68 67 63 62 58 56 52 50 45 43 45 41 38 38 38 37 38 35 36 36 37 36 35 32 33 36 31 28 25 25 25 26 27
86 85 91 84 79 74 70 66 65 65 81 72 70 68 64 62 59 55 53 51 48 47 47 45 41 41 40 41 42 40 38 40 40 38 38 34 35 39 40 34 31 30 30 29 29
91 80 89 89 79 71 69 67 67 80 79 77 72 66 63 58 56 55 53 52 51 49 48 45 44 44 43 43 45 43 41 42 43 42 40 37 37 38 41 37 34 33 34 34 33
87 81 79 86 82 79 72 71 77 79 79 77 74 69 65 59 57 56 55 54 54 51 51 49 48 45 44 44 45 46 45 44 46 45 43 40 42 40 41 41 41 39 38 38 37
79 82 78 79 85 85 73 77 80 81 77 77 74 69 65 60 53 52 52 51 48 50 51 51 53 49 47 48 47 48 47 44 46 46 46 46 45 42 42 42 42 42 41 40 41
73 76 78 78 72 77 84 82 80 80 79 77 70 66 64 60 56 53 50 49 45 45 44 49 52 50 46 48 48 48 45 46 46 47 48 46 45 46 44 43 43 43 45 45 45
71 66 66 72 74 78 79 66 71 75 74 67 66 66 63 60 56 54 54 53 49 45 46 52 49 48 46 45 40 42 42 42 43 47 46 48 50 47 45 45 46 47 49 50 50
56 64 65 67 70 73 70 64 61 62 58 56 59 61 66 60 59 53 51 52 50 48 50 47 51 52 47 50 50 50 48 48 49 48 48 48 50 48 48 49 51 52 52 53 53
35 53 63 64 69 66 58 65 67 64 62 59 57 56 59 63 61 54 51 48 48 47 47 50 55 56 57 56 55 53 49 48 47 50 54 52 54 50 52 51 52 52 52 53 53
45 52 58 63 59 51 57 61 65 63 64 66 65 62 58 57 59 62 62 63 59 53 49 48 52 54 54 53 53 55 53 51 52 56 54 54 53 52 53 53 53 54 54 55 55
36 52 60 62 55 49 49 47 52 58 62 62 64 66 63 63 61 59 54 51 51 51 53 54 55 56 58 59 57 55 52 49 51 50 52 51 51 53 54 55 55 55 56 57 57
30 43 51 52 44 44 47 45 44 46 50 53 55 57 57 60 61 59 55 50 49 46 46 48 50 51 54 56 57 56 55 57 57 56 57 56 56 55 56 57 57 57 58 59 61
30 35 42 49 39 47 49 44 42 42 42 44 40 49 55 57 59 58 56 55 54 52 51 52 54 55 59 59 59 61 62 60 58 57 56 56 55 57 58 59 59 60 60 62 64
Wind_Direction
215 213 214 216 216 216 213 212 215 222 222 222 217 220 219 219 224 233 214 244 322 351 345 268 224 209 212 219 220 221 222 223 225 230 240 236 251 262 269 268 254 248 241 257 241
218 217 215 216 217 218 217 216 218 224 224 224 226 228 228 228 227 235 239 249 281 313 340 266 237 220 212 215 219 221 225 227 227 230 232 240 241 247 261 274 272 261 247 247 244
219 218 218 217 218 218 219 221 220 223 227 227 230 232 235 236 238 234 240 251 261 284 305 267 230 225 217 219 217 221 225 224 230 234 231 238 234 240 247 256 262 262 268 255 248
220 220 219 218 219 221 218 220 223 225 227 230 234 237 240 239 243 240 241 247 261 272 273 277 237 222 221 221 221 226 224 222 229 231 234 233 237 234 242 240 249 258 262 269 252
221 221 222 221 220 221 222 221 223 226 228 231 236 240 242 241 245 246 248 251 255 266 267 252 240 230 220 221 223 225 223 222 227 231 234 235 236 236 244 245 243 247 246 251 258
221 222 221 222 222 221 222 224 224 225 228 230 235 240 242 244 243 249 247 251 259 265 269 257 240 238 230 224 224 227 229 231 229 233 235 237 240 240 251 261 255 258 239 242 244
226 222 222 222 223 223 222 224 227 227 230 231 235 237 239 242 244 245 248 248 251 255 264 263 248 236 235 232 231 229 232 234 241 243 244 245 249 246 256 254 254 253 258 240 241
222 228 225 223 223 223 224 224 226 229 232 233 233 235 235 239 241 246 245 248 249 252 255 257 251 235 230 238 239 239 239 241 246 250 250 249 251 252 255 256 257 258 260 261 252
220 223 230 226 225 224 225 225 226 227 230 234 235 236 235 236 240 241 245 245 246 247 251 256 250 240 230 231 237 239 238 244 243 253 259 258 253 256 256 258 257 256 256 254 252
222 219 223 230 226 227 227 226 227 228 230 233 234 237 235 236 239 239 243 244 241 243 246 248 252 247 236 237 236 241 245 247 246 243 252 258 261 265 263 264 260 252 250 252 253
218 219 221 222 230 227 228 227 227 228 230 232 235 237 237 237 237 239 239 242 243 243 242 244 248 247 237 240 241 241 246 250 255 255 255 257 255 268 274 270 262 262 257 253 254
217 217 219 223 224 228 227 229 229 230 230 231 233 236 237 238 238 238 239 241 243 242 242 245 245 243 246 246 248 250 251 257 256 259 256 255 255 259 268 271 273 268 262 262 261
221 215 218 219 223 225 228 229 230 232 231 231 233 234 234 238 238 240 239 241 242 244 245 243 242 246 249 249 246 249 252 254 258 258 258 256 257 263 263 265 267 272 272 267 265
222 216 217 220 221 223 224 227 228 230 233 231 234 236 235 236 240 239 241 241 244 246 246 243 244 245 249 251 251 249 251 252 256 256 258 258 259 262 262 268 271 275 277 274 274
218 221 216 217 219 221 223 224 226 228 233 231 230 234 234 236 240 240 242 242 242 244 247 247 244 245 247 251 254 256 256 255 254 257 258 260 264 269 265 265 266 273 277 271 270
221 222 220 214 217 218 221 223 224 225 230 232 232 234 236 235 237 239 241 243 243 243 245 246 245 246 246 250 254 254 255 257 259 259 258 260 262 265 270 269 268 267 267 268 268
224 222 224 217 215 217 219 220 221 224 229 231 235 233 236 237 239 240 240 243 246 247 247 248 249 247 248 248 252 255 257 259 259 259 262 260 259 260 268 270 268 267 267 268 267
222 223 223 219 214 214 217 219 223 225 229 232 232 234 235 238 238 239 242 242 243 246 249 249 248 250 251 252 253 254 255 257 263 263 263 262 261 261 264 266 270 270 270 271 271
222 222 222 224 221 216 213 215 222 223 224 227 232 235 238 237 238 239 241 244 244 247 249 252 251 250 251 251 251 253 255 258 260 261 261 260 261 262 262 265 265 267 271 271 271
220 224 220 227 224 225 223 223 224 224 227 225 230 235 239 242 241 242 243 244 243 244 245 248 252 252 251 252 251 254 254 255 257 260 262 263 263 261 261 262 265 267 268 270 273
216 219 224 223 227 219 221 228 231 228 230 233 234 232 235 239 240 240 242 242 242 242 243 248 249 250 249 250 252 251 254 256 259 258 263 266 265 267 269 270 269 269 271 273 275
210 210 217 222 225 229 226 226 224 229 233 236 239 239 237 238 241 239 238 239 241 242 243 246 249 250 251 249 250 251 253 255 257 262 265 266 268 271 273 274 275 276 276 276 276
211 211 218 222 224 233 243 235 228 224 225 229 231 233 234 236 238 237 235 236 237 239 239 242 245 249 251 251 252 255 257 258 261 263 264 266 269 271 272 274 274 274 274 275 275
201 204 214 220 225 226 237 237 236 230 225 229 232 231 233 237 239 239 238 241 237 231 234 236 240 247 251 252 252 253 255 257 258 259 263 266 268 270 270 270 271 272 274 275 275
213 203 208 216 224 225 228 225 232 238 238 236 234 234 236 239 239 239 239 238 236 235 236 238 241 245 247 251 252 254 254 254 258 260 260 262 262 264 265 268 270 272 272 273 273
207 207 209 215 213 218 224 222 224 232 236 235 236 236 238 240 244 246 245 244 242 242 242 244 246 248 251 255 257 258 257 256 255 256 259 261 262 263 264 265 266 268 269 270 271
205 205 216 218 205 209 217 226 228 224 228 233 233 238 238 240 241 242 242 242 241 241 240 242 244 245 246 248 251 254 255 257 258 258 261 263 267 267 268 269 270 271 273 273 275
Height
5794 5798 5802 5806 5810 5814 5817 5820 5822 5825 5827 5830 5832 5835 5836 5837 5838 5839 5839 5840 5840 5840 5840 5840 5840 5842 5844 5846 5848 5849 5851 5852 5855 5857 5857 5859 5859 5859 5860 5860 5861 5862 5864 5864 5865
5786 5790 5793 5797 5802 5807 5811 5814 5817 5819 5822 5825 5828 5831 5833 5834 5835 5836 5837 5837 5838 5837 5837 5838 5838 5839 5841 5842 5845 5846 5847 5850 5851 5852 5854 5856 5856 5857 5858 5858 5859 5859 5861 5862 5862
5776 5780 5785 5789 5793 5797 5803 5808 5812 5814 5817 5820 5823 5826 5829 5831 5832 5832 5833 5834 5835 5834 5834 5835 5835 5836 5838 5840 5841 5843 5844 5846 5847 5849 5851 5851 5853 5853 5855 5855 5856 5857 5857 5859 5860
5764 5770 5775 5779 5784 5790 5793 5799 5804 5808 5810 5814 5817 5821 5824 5827 5829 5829 5830 5831 5832 5832 5831 5832 5832 5833 5835 5837 5838 5840 5842 5843 5844 5846 5847 5848 5849 5851 5851 5852 5853 5853 5855 5855 5857
5752 5759 5765 5770 5775 5780 5785 5790 5795 5800 5804 5807 5811 5815 5819 5821 5823 5824 5826 5827 5828 5828 5828 5829 5830 5831 5832 5833 5835 5837 5838 5840 5841 5843 5844 5846 5846 5848 5846 5849 5850 5850 5852 5853 5853
5738 5746 5752 5759 5765 5770 5776 5782 5786 5790 5796 5800 5804 5808 5813 5816 5818 5820 5821 5823 5825 5825 5826 5826 5827 5828 5829 5830 5832 5833 5835 5836 5838 5839 5841 5842 5843 5844 5843 5846 5846 5846 5849 5849 5850
5726 5731 5738 5746 5753 5760 5765 5771 5778 5782 5787 5791 5796 5801 5806 5810 5812 5815 5817 5818 5820 5821 5822 5823 5824 5824 5826 5827 5829 5830 5832 5834 5835 5836 5837 5839 5840 5841 5840 5841 5842 5843 5843 5845 5846
5712 5721 5727 5732 5740 5747 5753 5759 5767 5773 5778 5783 5788 5793 5799 5802 5806 5809 5811 5813 5815 5817 5818 5819 5820 5821 5822 5824 5825 5827 5829 5830 5831 5832 5834 5836 5836 5838 5836 5837 5838 5840 5840 5840 5842
5692 5705 5716 5722 5728 5735 5741 5747 5754 5761 5766 5773 5779 5785 5790 5795 5800 5801 5805 5807 5810 5812 5814 5815 5816 5818 5819 5820 5822 5824 5825 5826 5827 5827 5829 5831 5832 5832 5833 5833 5833 5835 5836 5836 5836
5674 5685 5697 5708 5716 5724 5730 5737 5743 5749 5755 5762 5768 5776 5783 5789 5790 5794 5798 5800 5803 5806 5808 5810 5812 5814 5816 5817 5819 5820 5821 5822 5824 5826 5826 5826 5828 5828 5828 5828 5829 5829 5830 5831 5831
5656 5668 5681 5691 5702 5709 5719 5726 5733 5738 5744 5754 5760 5765 5775 5779 5782 5786 5789 5793 5797 5800 5801 5804 5808 5810 5810 5812 5813 5815 5817 5819 5819 5821 5823 5823 5825 5824 5822 5824 5824 5823 5824 5826 5827
5637 5650 5663 5675 5685 5696 5704 5714 5720 5726 5733 5738 5745 5754 5763 5769 5774 5777 5781 5787 5790 5792 5795 5799 5803 5801 5804 5807 5808 5809 5811 5813 5815 5815 5818 5818 5821 5821 5819 5819 5818 5818 5818 5819 5821
5622 5632 5646 5657 5670 5684 5694 5703 5707 5712 5719 5726 5733 5740 5750 5757 5762 5768 5772 5777 5782 5784 5788 5790 5795 5795 5797 5800 5802 5804 5805 5806 5808 5810 5811 5813 5815 5816 5813 5812 5813 5814 5814 5815 5815
5606 5615 5628 5642 5658 5670 5681 5687 5693 5699 5705 5714 5720 5729 5736 5744 5749 5757 5762 5769 5773 5778 5778 5782 5786 5789 5789 5792 5793 5796 5798 5798 5799 5802 5804 5808 5808 5808 5807 5808 5809 5809 5808 5809 5810
5592 5602 5613 5631 5645 5657 5671 5672 5679 5686 5690 5704 5707 5714 5724 5729 5741 5747 5754 5758 5763 5767 5768 5776 5778 5781 5782 5785 5785 5788 5790 5791 5791 5793 5796 5800 5801 5797 5799 5802 5803 5803 5802 5802 5803
5578 5592 5601 5613 5629 5643 5651 5658 5665 5673 5669 5682 5693 5702 5711 5718 5727 5737 5742 5748 5754 5755 5758 5763 5769 5771 5774 5775 5775 5778 5780 5781 5782 5783 5786 5792 5793 5790 5786 5792 5794 5795 5794 5795 5795
5562 5579 5591 5604 5620 5629 5634 5640 5649 5653 5664 5673 5682 5693 5701 5709 5717 5724 5732 5737 5742 5746 5749 5755 5757 5760 5763 5766 5766 5769 5772 5771 5772 5774 5777 5781 5783 5781 5779 5781 5784 5786 5786 5787 5788
5547 5567 5578 5595 5600 5608 5614 5623 5631 5645 5655 5659 5671 5679 5689 5698 5705 5712 5718 5724 5730 5736 5739 5743 5747 5750 5755 5757 5758 5758 5760 5762 5761 5765 5767 5769 5770 5774 5773 5774 5772 5774 5776 5776 5776
5535 5550 5565 5578 5586 5589 5596 5602 5620 5630 5642 5651 5659 5667 5676 5687 5694 5701 5707 5714 5721 5726 5730 5732 5732 5739 5742 5744 5747 5748 5749 5754 5751 5752 5753 5756 5758 5762 5765 5764 5766 5764 5763 5764 5764
5526 5538 5553 5566 5575 5578 5580 5597 5616 5623 5631 5638 5648 5658 5666 5676 5684 5690 5697 5704 5710 5714 5717 5718 5720 5725 5730 5731 5735 5737 5741 5741 5742 5742 5741 5744 5747 5748 5752 5755 5755 5756 5755 5754 5754
5521 5532 5539 5552 5556 5561 5566 5598 5608 5616 5620 5632 5642 5648 5654 5662 5671 5678 5685 5691 5698 5703 5705 5705 5710 5715 5718 5721 5725 5726 5728 5731 5733 5731 5733 5733 5733 5738 5741 5743 5744 5744 5743 5742 5742
5511 5521 5531 5534 5537 5541 5567 5594 5595 5605 5612 5620 5631 5637 5642 5652 5657 5666 5672 5677 5684 5690 5693 5698 5696 5698 5705 5707 5710 5713 5717 5719 5720 5723 5723 5722 5723 5724 5728 5729 5729 5729 5730 5730 5730
5503 5514 5522 5524 5524 5541 5565 5572 5582 5592 5599 5608 5617 5625 5631 5638 5646 5653 5658 5665 5671 5676 5679 5683 5685 5687 5689 5693 5698 5702 5708 5709 5711 5710 5708 5711 5711 5717 5715 5715 5715 5715 5715 5715 5716
5496 5504 5511 5514 5521 5538 5546 5557 5567 5577 5584 5594 5604 5612 5621 5625 5631 5636 5644 5649 5655 5660 5664 5669 5672 5675 5677 5681 5685 5687 5693 5695 5696 5695 5698 5698 5699 5701 5701 5701 5701 5700 5700 5699 5698
5487 5493 5501 5508 5519 5529 5539 5546 5554 5561 5573 5583 5591 5600 5608 5614 5620 5623 5631 5637 5641 5646 5650 5655 5659 5664 5665 5666 5670 5673 5678 5681 5681 5685 5683 5686 5686 5686 5686 5686 5687 5687 5686 5684 5683
5480 5487 5494 5506 5511 5520 5528 5535 5545 5553 5562 5571 5581 5590 5596 5603 5607 5612 5618 5624 5628 5633 5637 5641 5645 5650 5651 5652 5654 5657 5662 5663 5666 5668 5670 5669 5670 5673 5673 5673 5672 5672 5671 5669 5668
5474 5482 5489 5496 5504 5511 5518 5528 5538 5546 5554 5561 5569 5576 5583 5590 5595 5599 5603 5608 5614 5620 5625 5629 5633 5637 5639 5641 5641 5644 5646 5648 5652 5654 5658 5656 5658 5656 5656 5656 5657 5656 5655 5653 5651